Погода в Голмуде

Китай     36°23′57″N   94°54′11″E
темп.,
°C
ветер,
м/с
пор.,
м/с
влажн.,
%
обл.,
%
осадки,
мм/ч
давл.,
гПа
погр.,
м
25 июня, сб
сб2523:00+26з101320100 0.0 994588
02:00+20з172020100 0.0 10021211
05:00+16з151735100 0.0 10061067
08:00+14зюз121454100 0.0 10091035
11:00+17з111334100 0.1 10081378
14:00+19зсз593199 0.3 10052302
17:00+21зсз111029100 0.0 10032597
20:00+20зюз10113370 0.0 10031356
26 июня, вс
вс2623:00+18зюз8123796 0.0 1007329
02:00+16з9143889 0.0 1010607
05:00+15з7115290 0.0 1010306
08:00+16зсз58455 0.0 1011647
11:00+20зсз68305 0.0 10101985
14:00+24сз791953 0.0 10063157
17:00+25сз8101399 0.0 10024069
20:00+22зсз121221100 0.0 10041479
27 июня, пн
пн2723:00+18зсз101336100 0.1 1009540
02:00+17з7124011 0.3 1010349
05:00+15з510426 0.0 1011169
08:00+16зсз583695 0.0 1012507
11:00+21зсз682534 0.0 10092378
14:00+25сз78154 0.0 10063359
17:00+26сз77120 0.0 10023480
20:00+25сз67124 0.0 10013470
28 июня, вт
вт2823:00+21сз44160 0.0 100435
02:00+19з9142310 0.0 1007325
05:00+17з7122796 0.0 1008192
08:00+19з8923100 0.0 1010599
11:00+23зсз771760 0.0 10082534
14:00+26зсз771572 0.0 10043518
17:00+27зсз681184 0.0 10004215
20:00+26зсз671027 0.0 9993779
29 июня, ср
ср2923:00+21зсз561694 0.0 100265
02:00+19зсз33225 0.0 100314
05:00+17з6826100 0.0 100693
08:00+19з792489 0.0 1007452
11:00+24зсз54165 0.0 10042473
14:00+27сз561287 0.0 10014189
17:00+28сз571015 0.0 9974267
20:00+27сз781073 0.0 9973168